Condicions actuals
Partly Cloudy
Conditions



Pressió:
1018.92 (hPa) - 30.09 (inHG)
Visibilitat:

10.0 (km) - 6.2 (miles)
Base de Núvols

1524 (Mts) - 5000 (Feets)
   Temperatura
27  °C
Temperatura
19  °C
P.ros.
62  %
 Humitat
   Velocitat del Vent
11  km/h
6  kts
7  mph
3.1  m/s
   Vent Direcció
N
45°
E
90°
135°
S
180°
225°
O
270°
315°
 140°

Sur   Est
   Airport Data
LELL
Sabadell Airfield
Metar :LELL 060930Z 14006KT 090V190 9999 FEW050 BKN060 SCT080TCU 27/19 Q1019
Wed 6th July 11:30 am
   Raw Metar Info
Raw METAR is the most common format in the world for the transmission of observational weather data. It is highly standardized through the International Civil Aviation Organization (ICAO), which allows it to be understood throughout most of the world.
   API Info
Data Provided by
https://www.checkwx.com/weather/LELL

Aviation Weather providing METAR, TAF, AIRMET, SIGMET and OUTLOOK Weather Reports
   © Info
CSS/SVG/PHP scripts were developed by weather34.com for use in the weather34 template © 2015-2022

Guide Info provided by Metar-Wikipedia